Terminal Aerodrome Forecast
Issued by NWS

Home | Current Version | Previous Version | Text Only | Print | Product List | Glossary Off
Versions: 1 2 3 4 5 6 7 8 9 10 11 12 13 14

000
FTUS45 KGGW 301100
TAFSDY
TAF
KSDY 301140Z 3012/0112 30013KT P6SM VCSH BKN100
     FM301800 31018KT P6SM BKN190
     FM010300 VRB06KT P6SM FEW250
      AMD LTD TO CLD VIS AND WIND=

USA.gov is the U.S. government's official web portal to all federal, state and local government web resources and services.